Location: Great Falls
(47.5000°N, 111.3000°W)
Time: 14:37:16
(UTC-06:00)

Tiangong 2 - Visible Passes

Search period start: 24 June 2018 00:00
Search period end: 04 July 2018 00:00
Orbit: 385 x 396 km, 42.8° (Epoch: 24 June)

Date Brightness Start Highest point End Pass type
(mag) Time Alt. Az. Time Alt. Az. Time Alt. Az.
28 Jun 3.3 04:44:19 10° S 04:46:09 14° SSE 04:47:59 10° ESE visible
30 Jun 2.8 04:25:42 12° SSW 04:27:43 21° SSE 04:30:13 10° ESE visible
01 Jul 3.1 03:30:35 15° SSE 03:30:35 15° SSE 03:32:22 10° ESE visible
02 Jul 2.3 04:07:48 18° SSW 04:09:21 27° SSE 04:12:09 10° ESE visible
03 Jul 2.8 03:12:42 20° SE 03:12:42 20° SE 03:14:33 10° ESE visible
03 Jul 1.9 04:45:30 10° WSW 04:48:27 35° S 04:51:25 10° ESE visible
